Regional Weather Roundup
Issued by NWS

Home | Current Version | Previous Version | Graphics & Text | Print | Product List | Glossary On
Versions: 1 2 3 4 5 6 7 8 9 10 11 12 13 14 15 16 17 18 19 20 21 22 23 24 25 26 27 28 29 30 31 32 33 34 35 36 37 38 39 40 41 42 43 44 45 46 47 48 49 50
000
ASUS43 KIND 050409
RWRIN

WEATHER ROUNDUP FOR INDIANA
NATIONAL WEATHER SERVICE INDIANAPOLIS IN
1200 AM EDT WED AUG 05 2015

NOTE: "FAIR" INDICATES FEW OR NO CLOUDS BELOW 12,000 FEET WITH NO
SIGNIFICANT WEATHER AND/OR OBSTRUCTIONS TO VISIBILITY.

* - STATION DOES NOT REPORT WEATHER SUCH AS PRECIPITATION OR FOG.

+ - STATION NOT QUALITY CONTROLLED BY THE NATIONAL WEATHER SERVICE.
    USE DATA WITH CAUTION...ESPECIALLY DEWPOINT AND RELATIVE
    HUMIDITY OBSERVATIONS.

INZ001>003-010>013-019-020-050500-
NORTHWEST INDIANA

CITY           SKY/WX    TMP DP  RH WIND       PRES   REMARKS
GARY /AIRPORT/ CLEAR     66  64  92 E3        30.04S
KNOX *+        CLEAR     61  59  94 CALM      30.03R
LA PORTE +     CLEAR     63  62  97 CALM      30.05R
MICHIGAN CITY+ MOCLDY    61  61 100 CALM      30.05R
MONTICELLO +   PTCLDY    64  61  89 CALM      30.02S
RENSSELAER +   CLEAR     66  61  82 N5        30.04R
VALPARAISO     CLEAR     64  57  78 N3        30.04S

$$

LMZ046-743>745-050500-
SOUTHERN LAKE MICHIGAN

STATION/POSITION TIME  TEMP    WIND        PRES    WAVE
                       AIR SEA DIR/SP/G            HT
                 (UTC) (F)     (DEG/KT/KT) (MB)    (FT)
BURNS HARBOR     0300   72      90/  6/  7 1017.3R
MICHIGAN CITY    0300   71      80/  6/  7   N/A
5NW MICH CITY    0400   72 74  150/  4/  6   N/A     1

$$

INZ004-005-014>016-021>024-050500-
NORTH CENTRAL INDIANA

CITY           SKY/WX    TMP DP  RH WIND       PRES   REMARKS
GOSHEN         CLOUDY    65  59  81 N3        30.04R
LOGANSPORT +   PTCLDY    63  55  77 CALM      30.04R
PERU/GRISSOM   PTCLDY    67  59  74 W3        30.02S
ROCHESTER +    PTCLDY    66  63  88 CALM      30.04R
SOUTH BEND     CLOUDY    65  59  81 CALM      30.04S
WARSAW +       PTCLDY    63  59  88 CALM      30.04R

$$

INZ006>009-017-018-025>027-050500-
NORTHEAST INDIANA

CITY           SKY/WX    TMP DP  RH WIND       PRES   REMARKS
ANGOLA *+      CLOUDY    63  59  88 CALM      30.04R
AUBURN +       PTCLDY    63  59  88 CALM      30.04R
FORT WAYNE     MOCLDY    65  61  87 CALM      30.03S
HUNTINGTON +   PTCLDY    65  61  88 CALM      30.02S

$$

INZ028-029-035-036-043>045-051>053-050500-
WEST CENTRAL INDIANA

CITY           SKY/WX    TMP DP  RH WIND       PRES   REMARKS
CRAWFORDSVL +  MOCLDY    64  64 100 CALM        N/A
GREENCASTLE +  CLOUDY    66  61  82 CALM      30.04R
LAFAYETTE      PTCLDY    64  62  93 W3        30.03R
TERRE HAUTE    CLOUDY    67  64  90 CALM      30.02R

$$

INZ030>032-037>040-046>048-054>057-064-065-050500-
CENTRAL INDIANA

CITY           SKY/WX    TMP DP  RH WIND       PRES   REMARKS
FISHERS *+     MOCLDY    66  64  94 CALM      30.03R
FRANKFORT +    PTCLDY   N/A N/A N/A CALM      30.06R
GREENWOOD *+   CLOUDY    68  63  83 CALM      30.03S
INDIANAPOLIS   MOCLDY    71  61  70 NW5       30.02S
-EAGLE CREEK   MOCLDY    72  61  68 CALM      30.02S
KOKOMO *+      PTCLDY    63  57  82 CALM      30.04R
MARION +       PTCLDY    61  59  93 CALM      30.04S
MT COMFORT *+  MOCLDY    66 N/A N/A CALM      30.04R
SHELBYVILLE    CLOUDY    69  64  84 NE5       30.02S
ZIONSVILLE +   PTCLDY    65  62  90 CALM      30.05R

$$

INZ033-034-041-042-049-050-058-059-050500-
EAST CENTRAL INDIANA

CITY           SKY/WX    TMP DP  RH WIND       PRES   REMARKS
MUNCIE         PTCLDY    64  59  83 CALM      30.04R

$$

INZ060-061-067>069-081>083-085>088-050500-
SOUTHWEST INDIANA

CITY           SKY/WX    TMP DP  RH WIND       PRES   REMARKS
EVANSVILLE     CLOUDY    71  69  93 CALM      30.01S
HUNTINGBURG *+ CLOUDY    70  66  88 CALM      30.02R
WASHINGTON +   MOCLDY    70  66  88 CALM      30.00R

$$

INZ062-063-066-070>080-084-089>092-050500-
SOUTH CENTRAL AND SOUTHEAST INDIANA

CITY           SKY/WX    TMP DP  RH WIND       PRES   REMARKS
BLOOMINGTON    CLOUDY    68  66  93 N5        30.01S
MADISON *+     CLOUDY    72  68  88 CALM      30.03S
NORTH VERNON + CLOUDY    70  70 100 CALM      30.01F
SEYMOUR +      CLOUDY    72  70  94 CALM      30.00F

$$



USA.gov is the U.S. government's official web portal to all federal, state and local government web resources and services.